EN

Hourly Weather Almere

Today, 23 January, Saturday

Time Temperature Precipitation Wind Pressure Humidity
00:00 +1°C° 0 mm 3 mps 746 mmHg 91%
01:00 +1°C° 0 mm 2 mps 746 mmHg 91%
02:00 +1°C° 0 mm 2 mps 746 mmHg 92%
03:00 +1°C° 0 mm 2 mps 746 mmHg 92%
04:00 +1°C° 0 mm 2 mps 746 mmHg 92%
05:00 0°C° 0 mm 3 mps 746 mmHg 92%
06:00 0°C° 0 mm 3 mps 746 mmHg 92%
07:00 0°C° 0.2 mm 3 mps 745 mmHg 92%
08:00 0°C° 0.2 mm 3 mps 745 mmHg 92%
09:00 +1°C° 0.2 mm 3 mps 745 mmHg 91%
10:00 +1°C° 0.9 mm 3 mps 745 mmHg 93%
11:00 +1°C° 0.9 mm 3 mps 745 mmHg 94%
12:00 +2°C° 0.9 mm 3 mps 745 mmHg 95%
13:00 +3°C° 0.2 mm 2 mps 745 mmHg 95%
14:00 +3°C° 0.2 mm 2 mps 745 mmHg 94%
15:00 +4°C° 0.2 mm 1 mps 745 mmHg 94%
16:00 +3°C° 0.2 mm 2 mps 745 mmHg 94%
17:00 +1°C° 0.2 mm 3 mps 745 mmHg 95%
18:00 0°C° 0.2 mm 4 mps 746 mmHg 95%
19:00 0°C° 0 mm 4 mps 746 mmHg 94%
20:00 0°C° 0 mm 4 mps 746 mmHg 93%
21:00 0°C° 0 mm 4 mps 746 mmHg 92%
22:00 +1°C° 0 mm 3 mps 746 mmHg 91%
23:00 +1°C° 0 mm 3 mps 747 mmHg 91%

Tomorrow, 24 January, Sunday

Time Temperature Precipitation Wind Pressure Humidity
00:00 +1°C° 0 mm 3 mps 747 mmHg 90%
01:00 0°C° 0 mm 3 mps 747 mmHg 90%
02:00 0°C° 0 mm 3 mps 747 mmHg 89%
03:00 0°C° 0 mm 3 mps 747 mmHg 88%
04:00 -1°C° 0 mm 3 mps 747 mmHg 86%
05:00 -1°C° 0 mm 3 mps 748 mmHg 85%
06:00 -1°C° 0 mm 3 mps 748 mmHg 83%
07:00 +1°C° 0 mm 2 mps 748 mmHg 81%
08:00 +1°C° 0 mm 2 mps 749 mmHg 79%
09:00 +1°C° 0 mm 2 mps 749 mmHg 78%
10:00 +2°C° 0 mm 2 mps 749 mmHg 73%
11:00 +3°C° 0 mm 2 mps 749 mmHg 68%
12:00 +3°C° 0 mm 3 mps 749 mmHg 63%
13:00 +4°C° 0 mm 2 mps 749 mmHg 66%
14:00 +4°C° 0 mm 2 mps 749 mmHg 68%
15:00 +3°C° 0 mm 2 mps 749 mmHg 71%
16:00 +3°C° 0 mm 1 mps 750 mmHg 73%
17:00 +2°C° 0 mm 1 mps 750 mmHg 76%
18:00 +1°C° 0 mm 1 mps 750 mmHg 78%
19:00 +1°C° 0 mm 1 mps 751 mmHg 78%
20:00 +1°C° 0 mm 1 mps 751 mmHg 78%
21:00 +1°C° 0 mm 1 mps 751 mmHg 78%
22:00 +1°C° 0 mm 1 mps 752 mmHg 78%
23:00 -1°C° 0 mm 2 mps 752 mmHg 78%

Day after tomorrow, 25 January, Monday

Time Temperature Precipitation Wind Pressure Humidity
00:00 -1°C° 0 mm 2 mps 752 mmHg 79%
01:00 -1°C° 0 mm 2 mps 752 mmHg 79%
02:00 -1°C° 0 mm 3 mps 753 mmHg 80%
03:00 -1°C° 0 mm 3 mps 753 mmHg 80%
04:00 -1°C° 0 mm 3 mps 753 mmHg 81%
05:00 -1°C° 0 mm 3 mps 753 mmHg 83%
06:00 -1°C° 0 mm 3 mps 753 mmHg 84%
07:00 -1°C° 0 mm 3 mps 753 mmHg 85%
08:00 -1°C° 0 mm 3 mps 753 mmHg 85%
09:00 0°C° 0 mm 3 mps 754 mmHg 86%
10:00 0°C° 0.4 mm 3 mps 754 mmHg 89%
11:00 0°C° 0.4 mm 3 mps 754 mmHg 91%
12:00 0°C° 0.4 mm 3 mps 754 mmHg 94%
13:00 +1°C° 0 mm 3 mps 754 mmHg 93%
14:00 +2°C° 0 mm 2 mps 755 mmHg 92%
15:00 +2°C° 0 mm 2 mps 755 mmHg 91%
16:00 +2°C° 0 mm 2 mps 755 mmHg 90%
17:00 +2°C° 0 mm 2 mps 756 mmHg 89%
18:00 +1°C° 0 mm 2 mps 756 mmHg 88%
19:00 +1°C° 0 mm 2 mps 756 mmHg 89%
20:00 +1°C° 0 mm 2 mps 757 mmHg 89%
21:00 0°C° 0 mm 3 mps 757 mmHg 89%
22:00 +1°C° 0 mm 2 mps 757 mmHg 92%
23:00 +1°C° 0 mm 2 mps 757 mmHg 94%

26 January, Tuesday

Time Temperature Precipitation Wind Pressure Humidity
00:00 +1°C° 0 mm 2 mps 757 mmHg 96%
01:00 +1°C° 0 mm 2 mps 758 mmHg 95%
02:00 +1°C° 0 mm 2 mps 758 mmHg 95%
03:00 +1°C° 0 mm 2 mps 758 mmHg 94%
04:00 +1°C° 0 mm 2 mps 758 mmHg 94%
05:00 0°C° 0 mm 3 mps 758 mmHg 94%
06:00 0°C° 0 mm 3 mps 759 mmHg 93%
07:00 +1°C° 0 mm 3 mps 759 mmHg 91%
08:00 0°C° 0 mm 4 mps 759 mmHg 90%
09:00 +1°C° 0 mm 4 mps 760 mmHg 88%
10:00 +3°C° 0 mm 4 mps 759 mmHg 85%
11:00 +3°C° 0 mm 4 mps 759 mmHg 83%
12:00 +4°C° 0 mm 4 mps 759 mmHg 81%
13:00 +3°C° 0 mm 4 mps 759 mmHg 82%
14:00 +3°C° 0 mm 4 mps 759 mmHg 83%
15:00 +3°C° 0 mm 4 mps 759 mmHg 84%
16:00 +1°C° 0.4 mm 5 mps 758 mmHg 88%
17:00 +1°C° 0.4 mm 5 mps 757 mmHg 92%
18:00 -1°C° 0.4 mm 6 mps 756 mmHg 96%
19:00 +1°C° 1.3 mm 6 mps 755 mmHg 95%
20:00 0°C° 1.3 mm 7 mps 754 mmHg 95%
21:00 +2°C° 1.3 mm 7 mps 753 mmHg 95%
22:00 +3°C° 1.2 mm 7 mps 752 mmHg 93%
23:00 +4°C° 1.2 mm 7 mps 752 mmHg 91%

27 January, Wednesday

Time Temperature Precipitation Wind Pressure Humidity
00:00 +5°C° 1.2 mm 7 mps 751 mmHg 90%
01:00 +5°C° 0.7 mm 8 mps 752 mmHg 89%
02:00 +5°C° 0.7 mm 9 mps 752 mmHg 87%
03:00 +5°C° 0.7 mm 9 mps 753 mmHg 86%
04:00 +5°C° 0 mm 9 mps 753 mmHg 85%
05:00 +5°C° 0 mm 9 mps 754 mmHg 85%
06:00 +5°C° 0 mm 8 mps 755 mmHg 84%
07:00 +5°C° 0 mm 8 mps 756 mmHg 85%
08:00 +4°C° 0 mm 7 mps 757 mmHg 86%
09:00 +4°C° 0 mm 6 mps 758 mmHg 87%
10:00 +5°C° 0 mm 6 mps 758 mmHg 86%
11:00 +5°C° 0 mm 6 mps 759 mmHg 85%
12:00 +5°C° 0 mm 6 mps 759 mmHg 84%
13:00 +6°C° 0 mm 5 mps 759 mmHg 84%
14:00 +6°C° 0 mm 4 mps 759 mmHg 85%
15:00 +6°C° 0 mm 4 mps 760 mmHg 86%
16:00 +5°C° 0 mm 4 mps 759 mmHg 88%
17:00 +5°C° 0 mm 4 mps 759 mmHg 89%
18:00 +4°C° 0 mm 4 mps 759 mmHg 91%
19:00 +5°C° 0 mm 4 mps 759 mmHg 92%
20:00 +5°C° 0 mm 5 mps 759 mmHg 92%
21:00 +6°C° 0 mm 5 mps 758 mmHg 93%
22:00 +5°C° 0.1 mm 6 mps 757 mmHg 93%
23:00 +5°C° 0.1 mm 6 mps 756 mmHg 92%

28 January, Thursday

Time Temperature Precipitation Wind Pressure Humidity
00:00 +5°C° 0.1 mm 6 mps 755 mmHg 92%
01:00 +6°C° 1.3 mm 7 mps 754 mmHg 92%
02:00 +6°C° 1.3 mm 7 mps 753 mmHg 93%
03:00 +6°C° 1.3 mm 8 mps 752 mmHg 93%
04:00 +7°C° 0.4 mm 8 mps 751 mmHg 91%
05:00 +7°C° 0.4 mm 8 mps 750 mmHg 89%
06:00 +8°C° 0.4 mm 9 mps 749 mmHg 87%
07:00 +8°C° 0 mm 9 mps 749 mmHg 84%
08:00 +7°C° 0 mm 10 mps 749 mmHg 81%
09:00 +7°C° 0 mm 10 mps 749 mmHg 78%
10:00 +7°C° 0 mm 10 mps 749 mmHg 75%
11:00 +8°C° 0 mm 9 mps 749 mmHg 72%
12:00 +8°C° 0 mm 9 mps 749 mmHg 70%
13:00 +7°C° 0 mm 9 mps 750 mmHg 72%
14:00 +7°C° 0 mm 8 mps 750 mmHg 75%
15:00 +6°C° 0 mm 8 mps 750 mmHg 77%
16:00 +6°C° 0.4 mm 8 mps 750 mmHg 79%
17:00 +6°C° 0.4 mm 9 mps 751 mmHg 81%
18:00 +6°C° 0.4 mm 9 mps 752 mmHg 83%
Show more